sat.trackr.live / text

‹ back to catalog

GSAT-16

NORAD 40332 · 2014-078A

PAYLOAD ACTIVE UNKNOWN

§ Identity

Operator
Country
IND
Launch date
2014-12-06
Launch site
FRGUI
Launch vehicle
Mass (kg)
RCS (m²)
63.25

Purposes: comms

External: N2YO · Heavens-Above · Gunter

§ Orbital elements

Epoch: 2026-05-25T04:00:15.763104Z

Period
1,436.11 min
Inclination
0.0480°
Eccentricity
0.0007729
Mean motion
1.00270744 rev/d
Perigee alt
35,754.3 km
Apogee alt
35,819.5 km
Semi-major
42,165.0 km
B*
0.0000e+0
RAAN
98.3753°
Arg perigee
340.0619°
Mean anomaly
279.4714°
Rev number
4,187

§ Raw data

GSAT-161 40332U 14078A   26145.16684911  .00000083  00000+0  00000+0 0  99952 40332   0.0480  98.3753 0007729 340.0619 279.4714  1.00270744 41878

JSON: /api/v1/satellites/40332 · /tle

For live sub-satellite position, see the globe view (requires WebGL).

§ Visibility from observer

Set your observer location to see the next 7 days of passes ≥ 10°. The values pass through the URL so the page stays shareable.

No JS? Fill the form by hand. The geolocation button needs JavaScript.